| time (UTC) | temp F | wind direction | speed MPH | gust MPH | rain 1hr in | rain 24hr in | rain mn in | humidity % | barometer mb |
| 20260505223444 | 0 | 48 | 2.0 | 6.0 | 0.00 | 0.04 | 0.04 | 1057.2 | |
| 20260505222941 | 0 | 44 | 3.0 | 6.0 | 0.00 | 0.04 | 0.04 | 1057.3 | |
| 20260505222437 | 0 | 325 | 4.0 | 7.0 | 0.00 | 0.04 | 0.04 | 1057.2 | |
| 20260505221933 | 0 | 11 | 3.0 | 6.0 | 0.00 | 0.04 | 0.04 | 1057.3 | |
| 20260505221431 | 0 | 99 | 2.0 | 5.0 | 0.05 | 0.04 | 0.04 | 1057.3 | |
| 20260505220927 | 0 | 40 | 3.0 | 7.0 | 0.05 | 0.04 | 0.04 | 1057.1 | |
| 20260505220424 | 0 | 333 | 4.0 | 5.0 | 0.00 | 0.03 | 0.03 | 1057.1 | |
| 20260505215922 | 0 | 32 | 3.0 | 6.0 | 0.07 | 0.03 | 0.03 | 1056.9 | |
| 20260505215420 | 0 | 66 | 4.0 | 6.0 | 0.07 | 0.03 | 0.03 | 1057.0 | |
| 20260505214918 | 0 | 359 | 5.0 | 8.0 | 0.00 | 0.02 | 0.02 | 1057.2 | |
| 20260505214415 | 0 | 24 | 4.0 | 5.0 | 0.00 | 0.02 | 0.02 | 1057.1 | |
| 20260505213912 | 0 | 43 | 4.0 | 7.0 | 0.00 | 0.02 | 0.02 | 1057.1 | |
| 20260505213410 | 0 | 49 | 3.0 | 8.0 | 0.05 | 0.02 | 0.02 | 1057.0 | |
| 20260505212906 | 0 | 328 | 7.0 | 10.0 | 0.05 | 0.02 | 0.02 | 1057.1 | |
| 20260505212403 | 0 | 320 | 6.0 | 9.0 | 0.07 | 0.01 | 0.01 | 1056.9 | |
| 20260505211859 | 0 | 73 | 3.0 | 6.0 | 0.07 | 0.01 | 0.01 | 1056.8 | |
| 20260505211357 | 0 | 28 | 2.0 | 5.0 | 0.00 | 0.00 | 0.00 | 1057.3 | |
| 20260505210853 | 0 | 69 | 2.0 | 6.0 | 0.00 | 0.00 | 0.00 | 1057.0 | |
| 20260505210350 | 0 | 47 | 3.0 | 7.0 | 0.00 | 0.00 | 0.00 | 1057.2 | |
| 20260505205847 | 0 | 82 | 2.0 | 8.0 | 0.00 | 0.00 | 0.00 | 1056.7 | |
| 20260505205345 | 0 | 35 | 5.0 | 8.0 | 0.00 | 0.00 | 0.00 | 1056.8 | |
| 20260505204842 | 0 | 98 | 3.0 | 7.0 | 0.00 | 0.00 | 0.00 | 1056.7 | |
| 20260505204340 | 0 | 49 | 3.0 | 7.0 | 0.00 | 0.00 | 0.00 | 1056.5 | |
| 20260505203837 | 0 | 84 | 3.0 | 6.0 | 0.00 | 0.00 | 0.00 | 1056.6 | |
| 20260505203333 | 0 | 96 | 1.0 | 6.0 | 0.00 | 0.00 | 0.00 | 1056.5 | |
| 20260505202829 | 0 | 35 | 4.0 | 8.0 | 0.00 | 0.00 | 0.00 | 1056.7 | |
| 20260505202326 | 0 | 350 | 3.0 | 5.0 | 0.00 | 0.00 | 0.00 | 1056.6 | |
| 20260505201822 | 0 | 98 | 2.0 | 5.0 | 0.00 | 0.00 | 0.00 | 1056.2 | |
| 20260505201320 | 0 | 46 | 4.0 | 5.0 | 0.00 | 0.00 | 0.00 | 1056.6 | |
| 20260505200818 | 0 | 66 | 3.0 | 6.0 | 0.00 | 0.00 | 0.00 | 1057.0 | |
| 20260505200315 | 0 | 103 | 1.0 | 3.0 | 0.00 | 0.00 | 0.00 | 1057.0 | |
| 20260505195810 | 0 | 74 | 3.0 | 6.0 | 0.00 | 0.00 | 0.00 | 1057.1 | |
| 20260505195308 | 0 | 316 | 6.0 | 8.0 | 0.00 | 0.00 | 0.00 | 1056.7 | |
| 20260505194805 | 0 | 359 | 5.0 | 6.0 | 0.00 | 0.00 | 0.00 | 1056.5 | |
| 20260505194302 | 0 | 55 | 5.0 | 8.0 | 0.00 | 0.00 | 0.00 | 1056.3 | |
| 20260505193757 | 0 | 16 | 6.0 | 11.0 | 0.00 | 0.00 | 0.00 | 1056.5 | |
| 20260505193255 | 0 | 2 | 7.0 | 13.0 | 0.00 | 0.00 | 0.00 | 1056.5 | |
| 20260505192753 | 0 | 25 | 5.0 | 9.0 | 0.00 | 0.00 | 0.00 | 1056.5 | |
| 20260505192251 | 0 | 353 | 7.0 | 10.0 | 0.00 | 0.00 | 0.00 | 1056.8 | |
| 20260505191748 | 0 | 27 | 4.0 | 9.0 | 0.00 | 0.00 | 0.00 | 1056.8 | |
| 20260505191247 | 0 | 41 | 5.0 | 7.0 | 0.00 | 0.00 | 0.00 | 1056.8 | |
| 20260505190742 | 0 | 332 | 7.0 | 9.0 | 0.00 | 0.00 | 0.00 | 1056.7 | |
| 20260505190237 | 0 | 291 | 6.0 | 7.0 | 0.00 | 0.00 | 0.00 | 1056.8 | |
| 20260505185734 | 0 | 34 | 3.0 | 7.0 | 0.00 | 0.00 | 0.00 | 1056.8 | |
| 20260505185231 | 0 | 21 | 7.0 | 9.0 | 0.00 | 0.00 | 0.00 | 1056.4 | |
| 20260505184727 | 0 | 62 | 5.0 | 10.0 | 0.00 | 0.00 | 0.00 | 1056.6 | |
| 20260505184224 | 0 | 59 | 7.0 | 9.0 | 0.00 | 0.00 | 0.00 | 1057.0 | |
| 20260505183720 | 0 | 35 | 3.0 | 6.0 | 0.00 | 0.00 | 0.00 | 1057.1 | |
| 20260505183218 | 0 | 36 | 4.0 | 9.0 | 0.00 | 0.00 | 0.00 | 1057.1 | |
| 20260505182714 | 0 | 25 | 5.0 | 7.0 | 0.00 | 0.00 | 0.00 | 1057.1 | |
| 20260505182212 | 0 | 68 | 3.0 | 7.0 | 0.00 | 0.00 | 0.00 | 1056.7 | |
| 20260505181708 | 0 | 90 | 4.0 | 7.0 | 0.00 | 0.00 | 0.00 | 1056.9 | |
| 20260505181206 | 0 | 56 | 5.0 | 7.0 | 0.00 | 0.00 | 0.00 | 1057.1 | |
| 20260505180702 | 0 | 331 | 5.0 | 7.0 | 0.00 | 0.00 | 0.00 | 1057.1 | |
| 20260505180159 | 0 | 339 | 6.0 | 9.0 | 0.00 | 0.00 | 0.00 | 1057.2 | |
| 20260505175655 | 0 | 24 | 5.0 | 7.0 | 0.00 | 0.00 | 0.00 | 1057.2 | |
| 20260505175151 | 0 | 4 | 4.0 | 10.0 | 0.00 | 0.00 | 0.00 | 1057.3 | |
| 20260505174648 | 0 | 46 | 4.0 | 7.0 | 0.00 | 0.00 | 0.00 | 1057.1 | |
| 20260505174144 | 0 | 19 | 3.0 | 5.0 | 0.00 | 0.00 | 0.00 | 1056.8 | |
| 20260505173641 | 0 | 329 | 6.0 | 7.0 | 0.00 | 0.00 | 0.00 | 1056.7 | |
| 20260505173138 | 0 | 57 | 3.0 | 8.0 | 0.00 | 0.00 | 0.00 | 1056.6 | |
| 20260505172635 | 0 | 21 | 4.0 | 6.0 | 0.00 | 0.00 | 0.00 | 1056.8 | |
| 20260505172132 | 0 | 352 | 4.0 | 6.0 | 0.00 | 0.00 | 0.00 | 1056.3 | |
| 20260505171626 | 0 | 57 | 3.0 | 6.0 | 0.00 | 0.00 | 0.00 | 1056.3 | |
| 20260505171124 | 0 | 36 | 4.0 | 7.0 | 0.00 | 0.00 | 0.00 | 1056.1 | |
| 20260505170621 | 0 | 71 | 2.0 | 7.0 | 0.00 | 0.00 | 0.00 | 1056.2 | |
| 20260505170117 | 0 | 64 | 2.0 | 7.0 | 0.00 | 0.00 | 0.00 | 1056.0 | |
| 20260505165612 | 0 | 41 | 4.0 | 6.0 | 0.00 | 0.00 | 0.00 | 1056.5 | |
| 20260505165108 | 0 | 67 | 3.0 | 5.0 | 0.00 | 0.00 | 0.00 | 1056.5 | |
| 20260505164604 | 0 | 45 | 4.0 | 6.0 | 0.00 | 0.00 | 0.00 | 1057.0 | |
| 20260505164102 | 0 | 19 | 4.0 | 7.0 | 0.00 | 0.00 | 0.00 | 1056.5 | |
| 20260505163600 | 0 | 45 | 3.0 | 8.0 | 0.00 | 0.00 | 0.00 | 1056.7 | |
| 20260505163057 | 0 | 17 | 3.0 | 8.0 | 0.00 | 0.00 | 0.00 | 1056.6 | |
| 20260505162555 | 0 | 315 | 5.0 | 9.0 | 0.00 | 0.00 | 0.00 | 1057.3 | |
| 20260505162052 | 0 | 10 | 5.0 | 8.0 | 0.00 | 0.00 | 0.00 | 1057.6 | |
| 20260505161549 | 0 | 344 | 6.0 | 9.0 | 0.00 | 0.00 | 0.00 | 1057.1 | |
| 20260505161047 | 0 | 335 | 6.0 | 8.0 | 0.00 | 0.00 | 0.00 | 1057.2 | |
| 20260505160544 | 0 | 21 | 4.0 | 8.0 | 0.00 | 0.00 | 0.00 | 1057.0 | |
| 20260505153021 | 0 | 53 | 2.0 | 5.0 | 0.00 | 0.00 | 0.00 | 1056.2 | |
| 20260505152518 | 0 | 76 | 2.0 | 5.0 | 0.00 | 0.00 | 0.00 | 1056.2 | |
| 20260505152013 | 0 | 37 | 2.0 | 3.0 | 0.00 | 0.00 | 0.00 | 1056.0 | |
| 20260505151508 | 0 | 62 | 3.0 | 5.0 | 0.00 | 0.00 | 0.00 | 1055.3 | |
| 20260505151006 | 0 | 124 | 2.0 | 5.0 | 0.00 | 0.00 | 0.00 | 1055.4 | |
| 20260505150502 | 0 | 79 | 2.0 | 3.0 | 0.00 | 0.00 | 0.00 | 1055.7 | |
| 20260505140427 | 0 | 34 | 4.0 | 7.0 | 0.00 | 0.00 | 0.00 | 1056.0 | |
| 20260505124841 | 0 | 96 | 2.0 | 3.0 | 0.00 | 0.00 | 0.00 | 1054.8 | |
| 20260505124338 | 0 | 20 | 4.0 | 6.0 | 0.00 | 0.00 | 0.00 | 1054.8 | |
| 20260505123833 | 0 | 76 | 3.0 | 7.0 | 0.00 | 0.00 | 0.00 | 1054.7 | |
| 20260505123330 | 0 | 107 | 2.0 | 9.0 | 0.00 | 0.00 | 0.00 | 1054.7 | |
| 20260505122826 | 0 | 81 | 3.0 | 6.0 | 0.00 | 0.00 | 0.00 | 1055.2 | |
| 20260505122324 | 0 | 121 | 2.0 | 6.0 | 0.00 | 0.00 | 0.00 | 1054.9 | |
| 20260505121820 | 0 | 66 | 1.0 | 7.0 | 0.00 | 0.00 | 0.00 | 1054.9 | |
| 20260505121318 | 0 | 45 | 3.0 | 6.0 | 0.00 | 0.00 | 0.00 | 1055.0 | |
| 20260505120814 | 0 | 21 | 2.0 | 3.0 | 0.00 | 0.00 | 0.00 | 1054.9 | |
| 20260505120310 | 0 | 39 | 3.0 | 5.0 | 0.00 | 0.00 | 0.00 | 1055.0 | |
| 20260505115808 | 0 | 45 | 4.0 | 5.0 | 0.00 | 0.00 | 0.00 | 1055.2 | |
| 20260505115306 | 0 | 77 | 2.0 | 3.0 | 0.00 | 0.00 | 0.00 | 1054.6 | |
| 20260505114803 | 0 | 127 | 0.0 | 3.0 | 0.00 | 0.00 | 0.00 | 1054.6 | |
| 20260505114259 | 0 | 105 | 1.0 | 3.0 | 0.00 | 0.00 | 0.00 | 1054.5 | |
| 20260505113755 | 0 | 89 | 1.0 | 6.0 | 0.00 | 0.00 | 0.00 | 1054.4 | |
| 20260505113252 | 0 | 103 | 3.0 | 6.0 | 0.00 | 0.00 | 0.00 | 1054.8 | |
| 20260505112748 | 0 | 72 | 2.0 | 6.0 | 0.00 | 0.00 | 0.00 | 1054.4 | |
| 20260505112247 | 0 | 140 | 3.0 | 5.0 | 0.00 | 0.00 | 0.00 | 1054.6 | |
| 20260505111746 | 0 | 51 | 3.0 | 7.0 | 0.00 | 0.00 | 0.00 | 1054.6 | |
| 20260505111242 | 0 | 46 | 3.0 | 8.0 | 0.00 | 0.00 | 0.00 | 1054.6 | |
| 20260505110738 | 0 | 82 | 3.0 | 11.0 | 0.00 | 0.00 | 0.00 | 1054.6 | |
| 20260505110236 | 0 | 4 | 5.0 | 8.0 | 0.00 | 0.00 | 0.00 | 1054.3 | |
| 20260505102211 | 0 | 341 | 14.0 | 18.0 | 0.00 | 0.00 | 0.00 | 1054.7 | |
| 20260505101710 | 0 | 2 | 7.0 | 15.0 | 0.00 | 0.00 | 0.00 | 1054.5 | |
| 20260505101206 | 0 | 352 | 11.0 | 20.0 | 0.00 | 0.00 | 0.00 | 1054.2 | |
| 20260505100702 | 0 | 330 | 4.0 | 7.0 | 0.00 | 0.00 | 0.00 | 1053.7 | |
| 20260505100159 | 0 | 286 | 5.0 | 9.0 | 0.00 | 0.00 | 0.00 | 1053.6 | |
| 20260505095655 | 0 | 215 | 4.0 | 14.0 | 0.00 | 0.00 | 0.00 | 1053.4 | |
| 20260505095153 | 0 | 261 | 4.0 | 11.0 | 0.00 | 0.00 | 0.00 | 1053.9 | |
| 20260505094648 | 0 | 150 | 3.0 | 9.0 | 0.00 | 0.00 | 0.00 | 1053.5 | |
| 20260505094145 | 0 | 247 | 4.0 | 6.0 | 0.00 | 0.00 | 0.00 | 1053.4 | |
| 20260505093641 | 0 | 221 | 2.0 | 7.0 | 0.00 | 0.00 | 0.00 | 1053.1 | |
| 20260505093139 | 0 | 197 | 3.0 | 5.0 | 0.00 | 0.00 | 0.00 | 1052.9 | |
| 20260505092636 | 0 | 174 | 1.0 | 2.0 | 0.00 | 0.00 | 0.00 | 1052.1 | |
| 20260505092135 | 0 | 244 | 2.0 | 3.0 | 0.00 | 0.00 | 0.00 | 1051.9 | |
| 20260505091631 | 0 | 133 | 0.0 | 1.0 | 0.00 | 0.00 | 0.00 | 1051.7 | |
| 20260505091129 | 0 | 149 | 0.0 | 1.0 | 0.00 | 0.00 | 0.00 | 1051.4 | |
| 20260505090626 | 0 | 122 | 0.0 | 0.0 | 0.00 | 0.00 | 0.00 | 1051.3 | |
| 20260505090124 | 0 | 139 | 1.0 | 1.0 | 0.00 | 0.00 | 0.00 | 1051.1 | |
| 20260505085621 | 0 | 179 | 2.0 | 5.0 | 0.00 | 0.00 | 0.00 | 1051.1 | |
| 20260505085120 | 0 | 178 | 3.0 | 6.0 | 0.00 | 0.00 | 0.00 | 1051.1 | |
| 20260505084617 | 0 | 195 | 4.0 | 8.0 | 0.00 | 0.00 | 0.00 | 1051.3 | |
| 20260505084116 | 0 | 175 | 3.0 | 5.0 | 0.00 | 0.00 | 0.00 | 1051.4 | |
| 20260505083613 | 0 | 126 | 4.0 | 5.0 | 0.00 | 0.00 | 0.00 | 1051.8 | |
| 20260505083109 | 0 | 131 | 4.0 | 5.0 | 0.00 | 0.00 | 0.00 | 1052.0 | |
| 20260505082605 | 0 | 167 | 1.0 | 3.0 | 0.00 | 0.00 | 0.00 | 1052.1 | |
| 20260505082102 | 0 | 154 | 1.0 | 2.0 | 0.00 | 0.00 | 0.00 | 1052.2 | |
| 20260505081558 | 0 | 141 | 1.0 | 2.0 | 0.00 | 0.00 | 0.00 | 1052.0 | |
| 20260505081055 | 0 | 159 | 1.0 | 3.0 | 0.00 | 0.00 | 0.00 | 1052.1 | |
| 20260505080551 | 0 | 156 | 2.0 | 2.0 | 0.00 | 0.00 | 0.00 | 1051.9 | |
| 20260505080049 | 0 | 160 | 2.0 | 5.0 | 0.00 | 0.00 | 0.00 | 1051.8 | |
| 20260505075544 | 0 | 142 | 1.0 | 3.0 | 0.00 | 0.00 | 0.00 | 1052.2 | |
| 20260505075041 | 0 | 159 | 2.0 | 3.0 | 0.00 | 0.00 | 0.00 | 1052.1 | |
| 20260505074538 | 0 | 125 | 2.0 | 2.0 | 0.00 | 0.00 | 0.00 | 1052.3 | |
| 20260505074035 | 0 | 158 | 2.0 | 2.0 | 0.00 | 0.00 | 0.00 | 1052.3 | |
| 20260505073533 | 0 | 166 | 2.0 | 3.0 | 0.00 | 0.00 | 0.00 | 1052.5 | |
| 20260505073032 | 0 | 158 | 1.0 | 2.0 | 0.00 | 0.00 | 0.00 | 1052.5 | |
| 20260505072526 | 0 | 132 | 1.0 | 2.0 | 0.00 | 0.00 | 0.00 | 1052.8 | |
| 20260505072023 | 0 | 142 | 1.0 | 1.0 | 0.00 | 0.00 | 0.00 | 1053.0 | |
| 20260505071518 | 0 | 145 | 0.0 | 1.0 | 0.00 | 0.00 | 0.00 | 1053.1 | |
| 20260505071017 | 0 | 130 | 0.0 | 1.0 | 0.00 | 0.00 | 0.00 | 1053.1 | |
| 20260505070514 | 0 | 134 | 1.0 | 1.0 | 0.00 | 0.00 | 0.00 | 1053.1 | |
| 20260505070010 | 0 | 130 | 0.0 | 0.0 | 0.00 | 0.00 | 0.00 | 1053.3 | |
| 20260505065506 | 0 | 130 | 0.0 | 1.0 | 0.00 | 0.00 | 0.00 | 1053.3 | |
| 20260505065002 | 0 | 125 | 0.0 | 0.0 | 0.00 | 0.00 | 0.00 | 1053.4 | |
| 20260505064459 | 0 | 127 | 0.0 | 1.0 | 0.00 | 0.00 | 0.00 | 1053.0 | |
| 20260505063958 | 0 | 131 | 0.0 | 1.0 | 0.00 | 0.00 | 0.00 | 1052.9 | |
| 20260505063454 | 0 | 128 | 0.0 | 1.0 | 0.00 | 0.00 | 0.00 | 1053.0 | |
| 20260505062950 | 0 | 138 | 2.0 | 2.0 | 0.00 | 0.00 | 0.00 | 1052.9 | |
| 20260505062448 | 0 | 135 | 1.0 | 7.0 | 0.00 | 0.00 | 0.00 | 1052.6 | |
| 20260505061944 | 0 | 149 | 0.0 | 2.0 | 0.00 | 0.00 | 0.00 | 1052.5 | |
| 20260505061443 | 0 | 144 | 0.0 | 2.0 | 0.00 | 0.00 | 0.00 | 1051.9 | |
| 20260505060940 | 0 | 147 | 1.0 | 2.0 | 0.00 | 0.00 | 0.00 | 1052.0 | |
| 20260505060437 | 0 | 148 | 1.0 | 2.0 | 0.00 | 0.00 | 0.00 | 1052.0 | |
| 20260505055933 | 0 | 154 | 1.0 | 3.0 | 0.00 | 0.00 | 0.00 | 1051.8 | |
| 20260505055429 | 0 | 168 | 2.0 | 6.0 | 0.00 | 0.00 | 0.00 | 1051.9 | |
| 20260505054926 | 0 | 157 | 2.0 | 2.0 | 0.00 | 0.00 | 0.00 | 1052.2 | |
| 20260505054423 | 0 | 150 | 1.0 | 2.0 | 0.00 | 0.00 | 0.00 | 1052.8 | |
| 20260505053921 | 0 | 150 | 1.0 | 1.0 | 0.00 | 0.00 | 0.00 | 1052.5 | |
| 20260505053418 | 0 | 151 | 1.0 | 2.0 | 0.00 | 0.00 | 0.00 | 1052.5 | |
| 20260505052915 | 0 | 143 | 1.0 | 2.0 | 0.00 | 0.00 | 0.00 | 1052.2 | |
| 20260505052412 | 0 | 134 | 1.0 | 2.0 | 0.00 | 0.00 | 0.00 | 1052.5 | |
| 20260505051909 | 0 | 141 | 1.0 | 2.0 | 0.00 | 0.00 | 0.00 | 1052.3 | |
| 20260505051406 | 0 | 140 | 1.0 | 2.0 | 0.00 | 0.00 | 0.00 | 1052.7 | |
| 20260505050904 | 0 | 138 | 0.0 | 1.0 | 0.00 | 0.00 | 0.00 | 1052.8 | |
| 20260505050402 | 0 | 135 | 1.0 | 1.0 | 0.00 | 0.00 | 0.00 | 1052.7 | |
| 20260505041330 | 0 | 133 | 1.0 | 2.0 | 0.00 | 0.00 | 0.00 | 1053.1 | |
| 20260505040827 | 0 | 149 | 1.0 | 1.0 | 0.00 | 0.00 | 0.00 | 1053.2 | |
| 20260505040325 | 0 | 164 | 3.0 | 3.0 | 0.00 | 0.00 | 0.00 | 1053.1 | |
| 20260505035821 | 0 | 192 | 3.0 | 6.0 | 0.00 | 0.00 | 0.00 | 1053.1 | |
| 20260505035317 | 0 | 139 | 0.0 | 2.0 | 0.00 | 0.00 | 0.00 | 1053.1 | |
| 20260505034814 | 0 | 156 | 3.0 | 5.0 | 0.00 | 0.00 | 0.00 | 1053.3 | |
| 20260505034311 | 0 | 137 | 0.0 | 3.0 | 0.00 | 0.00 | 0.00 | 1052.8 | |
| 20260505033808 | 0 | 157 | 1.0 | 3.0 | 0.00 | 0.00 | 0.00 | 1053.0 | |
| 20260505033305 | 0 | 143 | 1.0 | 3.0 | 0.00 | 0.00 | 0.00 | 1053.2 | |
| 20260505032803 | 0 | 147 | 2.0 | 5.0 | 0.00 | 0.00 | 0.00 | 1053.2 | |
| 20260505032259 | 0 | 170 | 2.0 | 2.0 | 0.00 | 0.00 | 0.00 | 1053.2 | |
| 20260505031757 | 0 | 173 | 5.0 | 6.0 | 0.00 | 0.00 | 0.00 | 1053.3 | |
| 20260505031253 | 0 | 179 | 2.0 | 5.0 | 0.00 | 0.00 | 0.00 | 1053.4 | |
| 20260505030750 | 0 | 152 | 1.0 | 3.0 | 0.00 | 0.00 | 0.00 | 1053.5 | |
| 20260505030246 | 0 | 143 | 1.0 | 2.0 | 0.00 | 0.00 | 0.00 | 1053.5 | |
| 20260505025741 | 0 | 153 | 2.0 | 5.0 | 0.00 | 0.00 | 0.00 | 1053.2 | |
| 20260505025240 | 0 | 165 | 2.0 | 2.0 | 0.00 | 0.00 | 0.00 | 1053.4 | |
| 20260505024738 | 0 | 139 | 1.0 | 1.0 | 0.00 | 0.00 | 0.00 | 1053.1 | |
| 20260505024235 | 0 | 164 | 0.0 | 2.0 | 0.00 | 0.00 | 0.00 | 1053.0 | |
| 20260505023732 | 0 | 141 | 1.0 | 2.0 | 0.00 | 0.00 | 0.00 | 1053.0 | |
| 20260505023229 | 0 | 161 | 2.0 | 2.0 | 0.00 | 0.00 | 0.00 | 1052.6 | |
| 20260505022726 | 0 | 135 | 1.0 | 3.0 | 0.00 | 0.00 | 0.00 | 1052.7 | |
| 20260505022223 | 0 | 144 | 1.0 | 3.0 | 0.00 | 0.00 | 0.00 | 1052.8 | |
| 20260505021720 | 0 | 153 | 1.0 | 2.0 | 0.00 | 0.00 | 0.00 | 1052.6 | |
| 20260505021217 | 0 | 141 | 1.0 | 2.0 | 0.00 | 0.00 | 0.00 | 1052.7 | |
| 20260505020712 | 0 | 137 | 1.0 | 3.0 | 0.00 | 0.00 | 0.00 | 1052.6 | |
| 20260505020208 | 0 | 180 | 1.0 | 2.0 | 0.00 | 0.00 | 0.00 | 1052.5 | |
| 20260505015706 | 0 | 132 | 1.0 | 2.0 | 0.00 | 0.00 | 0.00 | 1052.3 | |
| 20260505015202 | 0 | 139 | 1.0 | 5.0 | 0.00 | 0.00 | 0.00 | 1052.2 | |
| 20260505014659 | 0 | 138 | 1.0 | 6.0 | 0.00 | 0.00 | 0.00 | 1052.0 | |
| 20260505014156 | 0 | 147 | 1.0 | 5.0 | 0.00 | 0.00 | 0.00 | 1052.1 | |
| 20260505013654 | 0 | 151 | 1.0 | 2.0 | 0.00 | 0.00 | 0.00 | 1051.8 | |
| 20260505013151 | 0 | 144 | 0.0 | 2.0 | 0.00 | 0.00 | 0.00 | 1052.0 | |
| 20260505012649 | 0 | 133 | 1.0 | 2.0 | 0.00 | 0.00 | 0.00 | 1051.7 | |
| 20260505012146 | 0 | 131 | 2.0 | 2.0 | 0.00 | 0.00 | 0.00 | 1051.8 | |
| 20260505011641 | 0 | 183 | 1.0 | 2.0 | 0.00 | 0.00 | 0.00 | 1051.7 | |
| 20260505011139 | 0 | 159 | 1.0 | 3.0 | 0.00 | 0.00 | 0.00 | 1051.7 | |
| 20260505010633 | 0 | 145 | 2.0 | 3.0 | 0.00 | 0.00 | 0.00 | 1051.3 | |
| 20260505010131 | 0 | 194 | 1.0 | 6.0 | 0.00 | 0.00 | 0.00 | 1051.6 | |
| 20260505005627 | 0 | 136 | 1.0 | 3.0 | 0.00 | 0.00 | 0.00 | 1051.3 | |
| 20260505005124 | 0 | 138 | 1.0 | 2.0 | 0.00 | 0.00 | 0.00 | 1051.5 | |
| 20260505004621 | 0 | 152 | 2.0 | 2.0 | 0.00 | 0.00 | 0.00 | 1051.4 | |
| 20260505004117 | 0 | 163 | 2.0 | 3.0 | 0.00 | 0.00 | 0.00 | 1051.3 | |
| 20260505003615 | 0 | 121 | 2.0 | 5.0 | 0.00 | 0.00 | 0.00 | 1051.3 | |
| 20260505003113 | 0 | 154 | 1.0 | 3.0 | 0.00 | 0.00 | 0.00 | 1051.2 | |
| 20260505002608 | 0 | 136 | 2.0 | 5.0 | 0.00 | 0.00 | 0.00 | 1051.2 | |
| 20260505002106 | 0 | 120 | 1.0 | 2.0 | 0.00 | 0.00 | 0.00 | 1051.2 | |
| 20260505001603 | 0 | 148 | 1.0 | 2.0 | 0.00 | 0.00 | 0.00 | 1051.2 | |
| 20260505001101 | 0 | 149 | 2.0 | 2.0 | 0.00 | 0.00 | 0.00 | 1051.4 | |
| 20260505000557 | 0 | 169 | 1.0 | 5.0 | 0.00 | 0.00 | 0.00 | 1051.5 | |
| 20260505000055 | 0 | 147 | 1.0 | 3.0 | 0.00 | 0.00 | 0.00 | 1051.5 | |
| 20260504235552 | 0 | 196 | 2.0 | 3.0 | 0.00 | 0.00 | 0.00 | 1051.6 | |
| 20260504235048 | 0 | 143 | 2.0 | 6.0 | 0.00 | 0.00 | 0.00 | 1051.6 | |
| 20260504234545 | 0 | 186 | 2.0 | 9.0 | 0.00 | 0.00 | 0.00 | 1051.3 | |
| 20260504234042 | 0 | 168 | 2.0 | 3.0 | 0.00 | 0.00 | 0.00 | 1051.4 | |
| 20260504233537 | 0 | 157 | 1.0 | 3.0 | 0.00 | 0.00 | 0.00 | 1051.4 | |
| 20260504233035 | 0 | 137 | 1.0 | 6.0 | 0.00 | 0.00 | 0.00 | 1051.1 | |
| 20260504232532 | 0 | 173 | 2.0 | 3.0 | 0.00 | 0.00 | 0.00 | 1051.4 | |
| 20260504232030 | 0 | 109 | 2.0 | 3.0 | 0.00 | 0.00 | 0.00 | 1051.5 | |
| 20260504231526 | 0 | 157 | 1.0 | 8.0 | 0.00 | 0.00 | 0.00 | 1051.5 | |
| 20260504231022 | 0 | 180 | 2.0 | 3.0 | 0.00 | 0.00 | 0.00 | 1051.4 | |
| 20260504230518 | 0 | 216 | 3.0 | 3.0 | 0.00 | 0.00 | 0.00 | 1051.7 | |
| 20260504230018 | 0 | 178 | 1.0 | 6.0 | 0.00 | 0.00 | 0.00 | 1051.8 | |
| 20260504225514 | 0 | 145 | 2.0 | 3.0 | 0.00 | 0.00 | 0.00 | 1051.7 | |
| 20260504225011 | 0 | 137 | 2.0 | 5.0 | 0.00 | 0.00 | 0.00 | 1051.6 | |
| 20260504224508 | 0 | 167 | 1.0 | 7.0 | 0.00 | 0.00 | 0.00 | 1051.7 | |
| 20260504224005 | 0 | 151 | 3.0 | 6.0 | 0.00 | 0.00 | 0.00 | 1051.7 |